Year,Month,Day,Hour,Minute,Value (Times are PST for temperature in C)
2020,04,25,10,06,10.60
2020,04,25,10,07,10.60
2020,04,25,10,08,10.50
2020,04,25,10,09,10.50
2020,04,25,10,10,10.40
2020,04,25,10,11,10.40
2020,04,25,10,12,10.40
2020,04,25,10,13,10.40
2020,04,25,10,14,10.40
2020,04,25,10,15,10.40
2020,04,25,10,16,10.40
2020,04,25,10,17,10.40
2020,04,25,10,18,10.40
2020,04,25,10,19,10.40
2020,04,25,10,20,10.40
2020,04,25,10,21,10.40
2020,04,25,10,22,10.30
2020,04,25,10,23,10.30
2020,04,25,10,24,10.30
2020,04,25,10,25,10.30
2020,04,25,10,26,10.30
2020,04,25,10,27,10.30
2020,04,25,10,28,10.30
2020,04,25,10,29,10.30
2020,04,25,10,30,10.30
2020,04,25,10,31,10.30
2020,04,25,10,32,10.30
2020,04,25,10,33,10.30
2020,04,25,10,34,10.30
2020,04,25,10,35,10.30
2020,04,25,10,36,10.30
2020,04,25,10,37,10.30
2020,04,25,10,38,10.30
2020,04,25,10,39,10.30
2020,04,25,10,40,10.30
2020,04,25,10,41,10.40
2020,04,25,10,42,10.40
2020,04,25,10,43,10.40
2020,04,25,10,44,10.40
2020,04,25,10,45,10.40
2020,04,25,10,46,10.50
2020,04,25,10,47,10.50
2020,04,25,10,48,10.50
2020,04,25,10,49,10.50
2020,04,25,10,50,10.40
2020,04,25,10,51,10.40
2020,04,25,10,52,10.40
2020,04,25,10,53,10.40
2020,04,25,10,54,10.40
2020,04,25,10,55,10.50
2020,04,25,10,56,10.50
2020,04,25,10,57,10.60
2020,04,25,10,58,10.60
2020,04,25,10,59,10.60
2020,04,25,11,00,10.70
2020,04,25,11,01,10.70
2020,04,25,11,02,10.70
2020,04,25,11,03,10.70
2020,04,25,11,04,10.80
2020,04,25,11,05,10.80
2020,04,25,11,06,10.80
2020,04,25,11,07,10.80
2020,04,25,11,08,10.80
2020,04,25,11,09,10.90
2020,04,25,11,10,10.90
2020,04,25,11,11,11.00
2020,04,25,11,12,11.00
2020,04,25,11,13,11.10
2020,04,25,11,14,11.10
2020,04,25,11,15,11.10
2020,04,25,11,16,11.10
2020,04,25,11,17,11.10
2020,04,25,11,18,11.20
2020,04,25,11,19,11.20
2020,04,25,11,20,11.30
2020,04,25,11,21,11.40
2020,04,25,11,22,11.40
2020,04,25,11,23,11.60
2020,04,25,11,24,11.60
2020,04,25,11,25,11.70
2020,04,25,11,26,11.80
2020,04,25,11,27,11.80
2020,04,25,11,28,11.80
2020,04,25,11,29,11.90
2020,04,25,11,30,12.00
2020,04,25,11,31,12.00
2020,04,25,11,32,12.10
2020,04,25,11,33,12.10
2020,04,25,11,34,12.20
2020,04,25,11,35,12.30
2020,04,25,11,36,12.30
2020,04,25,11,37,12.30
2020,04,25,11,38,12.40
2020,04,25,11,39,12.40
2020,04,25,11,40,12.50
2020,04,25,11,41,12.60
2020,04,25,11,42,12.60
2020,04,25,11,43,12.70
2020,04,25,11,44,12.80
2020,04,25,11,45,12.80
2020,04,25,11,46,12.80
2020,04,25,11,47,12.80
2020,04,25,11,48,12.90
2020,04,25,11,49,12.90
2020,04,25,11,50,12.90
2020,04,25,11,51,12.90
2020,04,25,11,52,12.90
2020,04,25,11,53,12.90
2020,04,25,11,54,13.00
2020,04,25,11,55,13.00
2020,04,25,11,56,13.10
2020,04,25,11,57,13.10
2020,04,25,11,58,13.10
2020,04,25,11,59,13.10
2020,04,25,12,00,13.10
2020,04,25,12,01,13.10
2020,04,25,12,02,13.10
2020,04,25,12,03,13.10
2020,04,25,12,04,13.20
2020,04,25,12,05,13.20
2020,04,25,12,06,13.20
2020,04,25,12,07,13.20
2020,04,25,12,08,13.30
2020,04,25,12,09,13.30
2020,04,25,12,10,13.30
2020,04,25,12,11,13.30
2020,04,25,12,12,13.40
2020,04,25,12,13,13.40
2020,04,25,12,14,13.40
2020,04,25,12,15,13.50
2020,04,25,12,16,13.50
2020,04,25,12,17,13.50
2020,04,25,12,18,13.50
2020,04,25,12,19,13.50
2020,04,25,12,20,13.60
2020,04,25,12,21,13.60
2020,04,25,12,22,13.60
2020,04,25,12,23,13.60
2020,04,25,12,24,13.60
2020,04,25,12,25,13.60
2020,04,25,12,26,13.60
2020,04,25,12,27,13.60
2020,04,25,12,28,13.60
2020,04,25,12,29,13.60
2020,04,25,12,30,13.60
2020,04,25,12,31,13.60
2020,04,25,12,32,13.60
2020,04,25,12,33,13.60
2020,04,25,12,34,13.60
2020,04,25,12,35,13.60
2020,04,25,12,36,13.60
2020,04,25,12,37,13.60
2020,04,25,12,38,13.60
2020,04,25,12,39,13.70
2020,04,25,12,40,13.70
2020,04,25,12,41,13.70
2020,04,25,12,42,13.80
2020,04,25,12,43,13.80
2020,04,25,12,44,13.80
2020,04,25,12,45,13.80
2020,04,25,12,46,13.90
2020,04,25,12,47,13.90
2020,04,25,12,48,13.80
2020,04,25,12,49,13.90
2020,04,25,12,50,13.80
2020,04,25,12,51,13.90
2020,04,25,12,52,13.90
2020,04,25,12,53,13.90
2020,04,25,12,54,13.90
2020,04,25,12,55,13.90
2020,04,25,12,56,13.90
2020,04,25,12,57,13.90
2020,04,25,12,58,13.90
2020,04,25,12,59,13.90
2020,04,25,13,00,13.90
2020,04,25,13,01,13.90
2020,04,25,13,02,13.90
2020,04,25,13,03,13.90
2020,04,25,13,04,13.90
2020,04,25,13,05,13.90
2020,04,25,13,06,13.90
2020,04,25,13,07,13.90
2020,04,25,13,08,14.00
2020,04,25,13,09,14.00
2020,04,25,13,10,14.00
2020,04,25,13,11,13.90
2020,04,25,13,12,13.90
2020,04,25,13,13,13.90
2020,04,25,13,14,13.80
2020,04,25,13,15,13.80
2020,04,25,13,16,13.90
2020,04,25,13,17,13.90
2020,04,25,13,18,13.90
2020,04,25,13,19,13.90
2020,04,25,13,20,13.90
2020,04,25,13,21,13.90
2020,04,25,13,22,13.90
2020,04,25,13,23,13.90
2020,04,25,13,24,14.00
2020,04,25,13,25,14.00
2020,04,25,13,26,14.00
2020,04,25,13,27,14.10
2020,04,25,13,28,14.10
2020,04,25,13,29,14.10
2020,04,25,13,30,14.20
2020,04,25,13,31,14.10
2020,04,25,13,32,14.10
2020,04,25,13,33,14.00
2020,04,25,13,34,14.00
2020,04,25,13,35,14.00
2020,04,25,13,36,13.90
2020,04,25,13,37,13.90
2020,04,25,13,38,14.00
2020,04,25,13,39,14.00
2020,04,25,13,40,13.90
2020,04,25,13,41,13.90
2020,04,25,13,42,13.90
2020,04,25,13,43,13.90
2020,04,25,13,44,13.90
2020,04,25,13,45,13.90
2020,04,25,13,46,13.80
2020,04,25,13,47,13.80
2020,04,25,13,48,13.80
2020,04,25,13,49,13.80
2020,04,25,13,50,13.80
2020,04,25,13,51,13.90
2020,04,25,13,52,13.90
2020,04,25,13,53,14.00
2020,04,25,13,54,14.00
2020,04,25,13,55,14.00
2020,04,25,13,56,14.00
2020,04,25,13,57,14.00
2020,04,25,13,58,14.00
2020,04,25,13,59,14.00
2020,04,25,14,00,14.10
2020,04,25,14,01,14.10
2020,04,25,14,02,14.10
2020,04,25,14,03,14.10
2020,04,25,14,04,14.20
2020,04,25,14,05,14.20
2020,04,25,14,06,14.20
2020,04,25,14,07,14.20
2020,04,25,14,08,14.20
2020,04,25,14,09,14.20
2020,04,25,14,10,14.20
2020,04,25,14,11,14.20
2020,04,25,14,12,14.20
2020,04,25,14,13,14.20
2020,04,25,14,14,14.20
2020,04,25,14,15,14.20
2020,04,25,14,16,14.20
2020,04,25,14,17,14.10
2020,04,25,14,18,14.10
2020,04,25,14,19,14.10
2020,04,25,14,20,14.10
2020,04,25,14,21,14.10
2020,04,25,14,22,14.20
2020,04,25,14,23,14.20
2020,04,25,14,24,14.20
2020,04,25,14,25,14.20
2020,04,25,14,26,14.20
2020,04,25,14,27,14.20
2020,04,25,14,28,14.30
2020,04,25,14,29,14.30
2020,04,25,14,30,14.30
2020,04,25,14,31,14.20
2020,04,25,14,32,14.30
2020,04,25,14,33,14.20
2020,04,25,14,34,14.20
2020,04,25,14,35,14.20
2020,04,25,14,36,14.20
2020,04,25,14,37,14.20
2020,04,25,14,38,14.20
2020,04,25,14,39,14.20
2020,04,25,14,40,14.20
2020,04,25,14,41,14.20
2020,04,25,14,42,14.20
2020,04,25,14,43,14.10
2020,04,25,14,44,14.10
2020,04,25,14,45,14.00
2020,04,25,14,46,14.00
2020,04,25,14,47,13.90
2020,04,25,14,48,14.00
2020,04,25,14,49,14.00
2020,04,25,14,50,14.00
2020,04,25,14,51,14.10
2020,04,25,14,52,14.10
2020,04,25,14,53,14.10
2020,04,25,14,54,14.00
2020,04,25,14,55,14.00
2020,04,25,14,56,13.90
2020,04,25,14,57,13.80
2020,04,25,14,58,13.70
2020,04,25,14,59,13.70
2020,04,25,15,00,13.60
2020,04,25,15,01,13.60
2020,04,25,15,02,13.60
2020,04,25,15,03,13.60
2020,04,25,15,04,13.60
2020,04,25,15,05,13.60
2020,04,25,15,06,13.60
2020,04,25,15,07,13.60
2020,04,25,15,08,13.60
2020,04,25,15,09,13.60
2020,04,25,15,10,13.70
2020,04,25,15,11,13.70
2020,04,25,15,12,13.70
2020,04,25,15,13,13.70
2020,04,25,15,14,13.70
2020,04,25,15,15,13.70
2020,04,25,15,16,13.70
2020,04,25,15,17,13.70
2020,04,25,15,18,13.70
2020,04,25,15,19,13.70
2020,04,25,15,20,13.70
2020,04,25,15,21,13.70
2020,04,25,15,22,13.70
2020,04,25,15,23,13.70
2020,04,25,15,24,13.70
2020,04,25,15,25,13.70
2020,04,25,15,26,13.70
2020,04,25,15,27,13.80
2020,04,25,15,28,13.80
2020,04,25,15,29,13.90
2020,04,25,15,30,13.90
2020,04,25,15,31,13.90
2020,04,25,15,32,13.80
2020,04,25,15,33,13.80
2020,04,25,15,34,13.80
2020,04,25,15,35,13.80
2020,04,25,15,36,13.80
2020,04,25,15,37,13.80
2020,04,25,15,38,13.80
2020,04,25,15,39,13.80
2020,04,25,15,40,13.90
2020,04,25,15,41,14.00
2020,04,25,15,42,14.00
2020,04,25,15,43,14.10
2020,04,25,15,44,14.10
2020,04,25,15,45,14.10
2020,04,25,15,46,14.00
2020,04,25,15,47,13.90
2020,04,25,15,48,13.90
2020,04,25,15,49,13.90
2020,04,25,15,50,13.90
2020,04,25,15,51,13.90
2020,04,25,15,52,13.90
2020,04,25,15,53,13.90
2020,04,25,15,54,13.80
2020,04,25,15,55,13.80
2020,04,25,15,56,13.90
2020,04,25,15,57,13.90
2020,04,25,15,58,13.90
2020,04,25,15,59,13.80
2020,04,25,16,00,13.80
2020,04,25,16,01,13.80
2020,04,25,16,02,13.90
2020,04,25,16,03,13.90
2020,04,25,16,04,13.90
2020,04,25,16,05,14.00
2020,04,25,16,06,14.00
2020,04,25,16,07,13.90
2020,04,25,16,08,13.90
2020,04,25,16,09,13.80
2020,04,25,16,10,13.80
2020,04,25,16,11,13.70
2020,04,25,16,12,13.70
2020,04,25,16,13,13.70
2020,04,25,16,14,13.70
2020,04,25,16,15,13.70
2020,04,25,16,16,13.80
2020,04,25,16,17,13.80
2020,04,25,16,18,13.80
2020,04,25,16,19,13.80
2020,04,25,16,20,13.80
2020,04,25,16,21,13.80
2020,04,25,16,22,13.80
2020,04,25,16,23,13.80
2020,04,25,16,24,13.70
2020,04,25,16,25,13.70
2020,04,25,16,26,13.70
2020,04,25,16,27,13.70
2020,04,25,16,28,13.70
2020,04,25,16,29,13.70
2020,04,25,16,30,13.70
2020,04,25,16,31,13.70
2020,04,25,16,32,13.60
2020,04,25,16,33,13.60
2020,04,25,16,34,13.60
2020,04,25,16,35,13.70
2020,04,25,16,36,13.70
2020,04,25,16,37,13.70
2020,04,25,16,38,13.70
2020,04,25,16,39,13.70
2020,04,25,16,40,13.70
2020,04,25,16,41,13.70
2020,04,25,16,42,13.70
2020,04,25,16,43,13.70
2020,04,25,16,44,13.80
2020,04,25,16,45,13.80
2020,04,25,16,46,13.80
2020,04,25,16,47,13.80
2020,04,25,16,48,13.80
2020,04,25,16,49,13.80
2020,04,25,16,50,13.80
2020,04,25,16,51,13.70
2020,04,25,16,52,13.80
2020,04,25,16,53,13.70
2020,04,25,16,54,13.70
2020,04,25,16,55,13.70
2020,04,25,16,56,13.70
2020,04,25,16,57,13.70
2020,04,25,16,58,13.70
2020,04,25,16,59,13.60
2020,04,25,17,00,13.60
2020,04,25,17,01,13.60
2020,04,25,17,02,13.60
2020,04,25,17,03,13.60
2020,04,25,17,04,13.60
2020,04,25,17,05,13.60
2020,04,25,17,06,13.70
2020,04,25,17,07,13.70
2020,04,25,17,08,13.70
2020,04,25,17,09,13.70
2020,04,25,17,10,13.70
2020,04,25,17,11,13.70
2020,04,25,17,12,13.70
2020,04,25,17,13,13.70
2020,04,25,17,14,13.70
2020,04,25,17,15,13.60
2020,04,25,17,16,13.60
2020,04,25,17,17,13.60
2020,04,25,17,18,13.50
2020,04,25,17,19,13.50
2020,04,25,17,20,13.50
2020,04,25,17,21,13.50
2020,04,25,17,22,13.50
2020,04,25,17,23,13.50
2020,04,25,17,24,13.50
2020,04,25,17,25,13.50
2020,04,25,17,26,13.50
2020,04,25,17,27,13.60
2020,04,25,17,28,13.60
2020,04,25,17,29,13.60
2020,04,25,17,30,13.60
2020,04,25,17,31,13.70
2020,04,25,17,32,13.70
2020,04,25,17,33,13.70
2020,04,25,17,34,13.70
2020,04,25,17,35,13.70
2020,04,25,17,36,13.60
2020,04,25,17,37,13.60
2020,04,25,17,38,13.60
2020,04,25,17,39,13.50
2020,04,25,17,40,13.50
2020,04,25,17,41,13.40
2020,04,25,17,42,13.40
2020,04,25,17,43,13.40
2020,04,25,17,44,13.30
2020,04,25,17,45,13.30
2020,04,25,17,46,13.30
2020,04,25,17,47,13.30
2020,04,25,17,48,13.30
2020,04,25,17,49,13.30
2020,04,25,17,50,13.30
2020,04,25,17,51,13.30
2020,04,25,17,52,13.30
2020,04,25,17,53,13.20
2020,04,25,17,54,13.20
2020,04,25,17,55,13.20
2020,04,25,17,56,13.20
2020,04,25,17,57,13.20
2020,04,25,17,58,13.20
2020,04,25,17,59,13.20
2020,04,25,18,00,13.20
2020,04,25,18,01,13.20
2020,04,25,18,02,13.20
2020,04,25,18,03,13.20
2020,04,25,18,04,13.20
2020,04,25,18,05,13.20
2020,04,25,18,06,13.20
2020,04,25,18,07,13.20
2020,04,25,18,08,13.10
2020,04,25,18,09,13.10
2020,04,25,18,10,13.10
2020,04,25,18,11,13.10
2020,04,25,18,12,13.10
2020,04,25,18,13,13.00
2020,04,25,18,14,13.00
2020,04,25,18,15,12.90
2020,04,25,18,16,12.90
2020,04,25,18,17,12.90
2020,04,25,18,18,12.90
2020,04,25,18,19,12.90
2020,04,25,18,20,12.90
2020,04,25,18,21,12.90
2020,04,25,18,22,12.90
2020,04,25,18,23,12.90
2020,04,25,18,24,12.80
2020,04,25,18,25,12.80
2020,04,25,18,26,12.80
2020,04,25,18,27,12.80
2020,04,25,18,28,12.80
2020,04,25,18,29,12.80
2020,04,25,18,30,12.80
2020,04,25,18,31,12.80
2020,04,25,18,32,12.80
2020,04,25,18,33,12.80
2020,04,25,18,34,12.80
2020,04,25,18,35,12.80
2020,04,25,18,36,12.80
2020,04,25,18,37,12.70
2020,04,25,18,38,12.70
2020,04,25,18,39,12.60
2020,04,25,18,40,12.60
2020,04,25,18,41,12.60
2020,04,25,18,42,12.50
2020,04,25,18,43,12.50
2020,04,25,18,44,12.50
2020,04,25,18,45,12.40
2020,04,25,18,46,12.40
2020,04,25,18,47,12.30
2020,04,25,18,48,12.30
2020,04,25,18,49,12.30
2020,04,25,18,50,12.30
2020,04,25,18,51,12.30
2020,04,25,18,52,12.30
2020,04,25,18,53,12.20
2020,04,25,18,54,12.10
2020,04,25,18,55,12.10
2020,04,25,18,56,12.10
2020,04,25,18,57,12.10
2020,04,25,18,58,12.00
2020,04,25,18,59,12.00
2020,04,25,19,00,12.00
2020,04,25,19,01,11.90
2020,04,25,19,02,11.90
2020,04,25,19,03,11.90
2020,04,25,19,04,11.80
2020,04,25,19,05,11.80
2020,04,25,19,06,11.80
2020,04,25,19,07,11.80
2020,04,25,19,08,11.80
2020,04,25,19,09,11.70
2020,04,25,19,10,11.70
2020,04,25,19,11,11.70
2020,04,25,19,12,11.70
2020,04,25,19,13,11.70
2020,04,25,19,14,11.70
2020,04,25,19,15,11.70
2020,04,25,19,16,11.70
2020,04,25,19,17,11.60
2020,04,25,19,18,11.60
2020,04,25,19,19,11.60
2020,04,25,19,20,11.60
2020,04,25,19,21,11.50
2020,04,25,19,22,11.50
2020,04,25,19,23,11.50
2020,04,25,19,24,11.50
2020,04,25,19,25,11.50
2020,04,25,19,26,11.50
2020,04,25,19,27,11.50
2020,04,25,19,28,11.50
2020,04,25,19,29,11.50
2020,04,25,19,30,11.40
2020,04,25,19,31,11.40
2020,04,25,19,32,11.40
2020,04,25,19,33,11.40
2020,04,25,19,34,11.40
2020,04,25,19,35,11.40
2020,04,25,19,36,11.40
2020,04,25,19,37,11.40
2020,04,25,19,38,11.40
2020,04,25,19,39,11.40
2020,04,25,19,40,11.40
2020,04,25,19,41,11.40
2020,04,25,19,42,11.40
2020,04,25,19,43,11.30
2020,04,25,19,44,11.30
2020,04,25,19,45,11.30
2020,04,25,19,46,11.30
2020,04,25,19,47,11.30
2020,04,25,19,48,11.30
2020,04,25,19,49,11.30
2020,04,25,19,50,11.30
2020,04,25,19,51,11.30
2020,04,25,19,52,11.20
2020,04,25,19,53,11.30
2020,04,25,19,54,11.30
2020,04,25,19,55,11.30
2020,04,25,19,56,11.30
2020,04,25,19,57,11.30
2020,04,25,19,58,11.30
2020,04,25,19,59,11.30
2020,04,25,20,00,11.30
2020,04,25,20,01,11.30
2020,04,25,20,02,11.30
2020,04,25,20,03,11.30
2020,04,25,20,04,11.30
2020,04,25,20,05,11.30
2020,04,25,20,06,11.30
2020,04,25,20,07,11.30
2020,04,25,20,08,11.30
2020,04,25,20,09,11.30
2020,04,25,20,10,11.30
2020,04,25,20,11,11.20
2020,04,25,20,12,11.20
2020,04,25,20,13,11.20
2020,04,25,20,14,11.20
2020,04,25,20,15,11.10
2020,04,25,20,16,11.10
2020,04,25,20,17,11.10
2020,04,25,20,18,11.10
2020,04,25,20,19,11.10
2020,04,25,20,20,11.10
2020,04,25,20,21,11.10
2020,04,25,20,22,11.10
2020,04,25,20,23,11.10
2020,04,25,20,24,11.00
2020,04,25,20,25,11.00
2020,04,25,20,26,11.00
2020,04,25,20,27,11.00
2020,04,25,20,28,11.00
2020,04,25,20,29,11.00
2020,04,25,20,30,11.00
2020,04,25,20,31,11.00
2020,04,25,20,32,10.90
2020,04,25,20,33,10.90
2020,04,25,20,34,10.90
2020,04,25,20,35,10.90
2020,04,25,20,36,11.00
2020,04,25,20,37,10.90
2020,04,25,20,38,10.90
2020,04,25,20,39,10.90
2020,04,25,20,40,10.90
2020,04,25,20,41,10.90
2020,04,25,20,42,10.90
2020,04,25,20,43,10.90
2020,04,25,20,44,10.90
2020,04,25,20,45,10.90
2020,04,25,20,46,10.90
2020,04,25,20,47,10.90
2020,04,25,20,48,10.90
2020,04,25,20,49,10.90
2020,04,25,20,50,11.00
2020,04,25,20,51,10.90
2020,04,25,20,52,11.00
2020,04,25,20,53,11.00
2020,04,25,20,54,11.00
2020,04,25,20,55,11.00
2020,04,25,20,56,11.00
2020,04,25,20,57,11.00
2020,04,25,20,58,11.00
2020,04,25,20,59,11.00
2020,04,25,21,00,11.00
2020,04,25,21,01,11.00
2020,04,25,21,02,11.00
2020,04,25,21,03,11.00
2020,04,25,21,04,10.90
2020,04,25,21,05,10.90
2020,04,25,21,06,10.90
2020,04,25,21,07,10.90
2020,04,25,21,08,10.90
2020,04,25,21,09,10.80
2020,04,25,21,10,10.80
2020,04,25,21,11,10.80
2020,04,25,21,12,10.80
2020,04,25,21,13,10.80
2020,04,25,21,14,10.80
2020,04,25,21,15,10.80
2020,04,25,21,16,10.80
2020,04,25,21,17,10.80
2020,04,25,21,18,10.80
2020,04,25,21,19,10.80
2020,04,25,21,20,10.80
2020,04,25,21,21,10.80
2020,04,25,21,22,10.80
2020,04,25,21,23,10.80
2020,04,25,21,24,10.80
2020,04,25,21,25,10.80
2020,04,25,21,26,10.80
2020,04,25,21,27,10.80
2020,04,25,21,28,10.80
2020,04,25,21,29,10.80
2020,04,25,21,30,10.80
2020,04,25,21,31,10.80
2020,04,25,21,32,10.80
2020,04,25,21,33,10.90
2020,04,25,21,34,10.90
2020,04,25,21,35,10.90
2020,04,25,21,36,10.80
2020,04,25,21,37,10.80
2020,04,25,21,38,10.80
2020,04,25,21,39,10.90
2020,04,25,21,40,10.90
2020,04,25,21,41,10.90
2020,04,25,21,42,10.90
2020,04,25,21,43,10.90
2020,04,25,21,44,10.90
2020,04,25,21,45,10.90
2020,04,25,21,46,10.90
2020,04,25,21,47,10.90
2020,04,25,21,48,10.90
2020,04,25,21,49,10.90
2020,04,25,21,50,10.90
2020,04,25,21,51,10.90
2020,04,25,21,52,10.80
2020,04,25,21,53,10.80
2020,04,25,21,54,10.80
2020,04,25,21,55,10.80
2020,04,25,21,56,10.80
2020,04,25,21,57,10.80
2020,04,25,21,58,10.80
2020,04,25,21,59,10.80
2020,04,25,22,00,10.80
2020,04,25,22,01,10.80
2020,04,25,22,02,10.80
2020,04,25,22,03,10.90
2020,04,25,22,04,10.90
2020,04,25,22,05,10.90
2020,04,25,22,06,10.90
2020,04,25,22,07,10.90
2020,04,25,22,08,10.90
2020,04,25,22,09,10.90
2020,04,25,22,10,10.90
2020,04,25,22,11,10.90
2020,04,25,22,12,10.90
2020,04,25,22,13,10.90
2020,04,25,22,14,11.00
2020,04,25,22,15,11.00
2020,04,25,22,16,11.00
2020,04,25,22,17,11.00
2020,04,25,22,18,11.00
2020,04,25,22,19,11.00
2020,04,25,22,20,11.00
2020,04,25,22,21,11.00
2020,04,25,22,22,11.00
2020,04,25,22,23,11.00
2020,04,25,22,24,10.90
2020,04,25,22,25,10.90
2020,04,25,22,26,10.90
2020,04,25,22,27,10.90
2020,04,25,22,28,10.90
2020,04,25,22,29,10.90
2020,04,25,22,30,10.80
2020,04,25,22,31,10.80
2020,04,25,22,32,10.80
2020,04,25,22,33,10.80
2020,04,25,22,34,10.90
2020,04,25,22,35,10.90
2020,04,25,22,36,10.90
2020,04,25,22,37,10.80
2020,04,25,22,38,10.80
2020,04,25,22,39,10.90
2020,04,25,22,40,10.90
2020,04,25,22,41,10.90
2020,04,25,22,42,10.90
2020,04,25,22,43,10.90
2020,04,25,22,44,10.90
2020,04,25,22,45,10.90
2020,04,25,22,46,10.90
2020,04,25,22,47,10.90
2020,04,25,22,48,10.90
2020,04,25,22,49,10.90
2020,04,25,22,50,10.90
2020,04,25,22,51,10.90
2020,04,25,22,52,10.90
2020,04,25,22,53,10.90
2020,04,25,22,54,10.90
2020,04,25,22,55,10.90
2020,04,25,22,56,10.80
2020,04,25,22,57,10.80
2020,04,25,22,58,10.80
2020,04,25,22,59,10.80
2020,04,25,23,00,10.80
2020,04,25,23,01,10.80
2020,04,25,23,02,10.80
2020,04,25,23,03,10.80
2020,04,25,23,04,10.80
2020,04,25,23,05,10.70
2020,04,25,23,06,10.70
2020,04,25,23,07,10.70
2020,04,25,23,08,10.70
2020,04,25,23,09,10.70
2020,04,25,23,10,10.70
2020,04,25,23,11,10.70
2020,04,25,23,12,10.70
2020,04,25,23,13,10.60
2020,04,25,23,14,10.70
2020,04,25,23,15,10.60
2020,04,25,23,16,10.60
2020,04,25,23,17,10.60
2020,04,25,23,18,10.60
2020,04,25,23,19,10.60
2020,04,25,23,20,10.60
2020,04,25,23,21,10.60
2020,04,25,23,22,10.60
2020,04,25,23,23,10.60
2020,04,25,23,24,10.60
2020,04,25,23,25,10.60
2020,04,25,23,26,10.60
2020,04,25,23,27,10.50
2020,04,25,23,28,10.50
2020,04,25,23,29,10.50
2020,04,25,23,30,10.50
2020,04,25,23,31,10.50
2020,04,25,23,32,10.50
2020,04,25,23,33,10.50
2020,04,25,23,34,10.50
2020,04,25,23,35,10.50
2020,04,25,23,36,10.50
2020,04,25,23,37,10.50
2020,04,25,23,38,10.50
2020,04,25,23,39,10.50
2020,04,25,23,40,10.50
2020,04,25,23,41,10.50
2020,04,25,23,42,10.50
2020,04,25,23,43,10.50
2020,04,25,23,44,10.50
2020,04,25,23,45,10.60
2020,04,25,23,46,10.50
2020,04,25,23,47,10.50
2020,04,25,23,48,10.50
2020,04,25,23,49,10.50
2020,04,25,23,50,10.50
2020,04,25,23,51,10.50
2020,04,25,23,52,10.50
2020,04,25,23,53,10.50
2020,04,25,23,54,10.50
2020,04,25,23,55,10.40
2020,04,25,23,56,10.40
2020,04,25,23,57,10.40
2020,04,25,23,58,10.40
2020,04,25,23,59,10.40
